{"data":{"norad_id":45451,"intl_designator":"2020-020AD","name":"ONEWEB-0087","alt_names":[],"object_type":"PAYLOAD","status":"ACTIVE","operator":null,"country":"UK","launch_date":"2020-03-21","launch_site_code":"TYMSC","launch_vehicle":null,"mission":null,"orbit_class":"UNKNOWN","rcs_meters":null,"size_class":null,"mass_kg":null,"dimensions":null,"purposes":["comms"],"wikipedia_slug":null,"has_3d_model":false,"image_url":null,"decayed_at":null,"tle_current":{"epoch":"2026-05-25T03:24:48.117312Z","epoch_age_seconds":62144,"freshness":"FRESH","line1":"1 45451U 20020AD  26145.14222358 -.00000264  00000+0 -78078-3 0  9994","line2":"2 45451  87.8925  25.6240 0001977  74.2845 285.8501 13.11414049299561","mean_motion":13.11414049,"eccentricity":0.0001977,"inclination_deg":87.8925,"raan_deg":25.624,"arg_perigee_deg":74.2845,"mean_anomaly_deg":285.8501,"bstar":-0.00078078,"rev_number":29956,"period_min":109.80513752297,"perigee_km":1216.192185187,"apogee_km":1219.1955767174,"semimajor_km":7595.8308809522,"source":"CELESTRAK","updated_at":"2026-05-25T13:38:22.346826Z"}}}